EWG9785 LHBP-EDDL

Flight info

Callsign EWG9785
Flight time N/A
Altitude 38000
Route GILEP2B GILEP DCT ZOLKU DCT BEGLA DCT DEXIT DCT RODIS DCT TESDU DCT AMETU T852 TINSA T854 DOMUX DOMUX1A
Aircraft A20N/M-SDE2E3FGHIRWXY/LB1

Departure

Time 2026-05-04 17:23
Airport Budapest Liszt Ferenc International Airport (LHBP)

Arrival

Time N/A
Airport Düsseldorf Airport (EDDL)
Time Latitude Longitude Altitude Speed Heading
2026-05-04 17:10 47.43338 19.25899 475 ft 0 kts 225°
2026-05-04 17:16 47.43350 19.25917 478 ft 2 kts 225°
2026-05-04 17:16 47.43373 19.25969 479 ft 2 kts 287°
2026-05-04 17:17 47.43372 19.25978 475 ft 0 kts 303°
2026-05-04 17:18 47.43372 19.25977 475 ft 1 kts 303°
2026-05-04 17:19 47.43440 19.25884 479 ft 12 kts 321°
2026-05-04 17:19 47.43575 19.25719 481 ft 10 kts
2026-05-04 17:20 47.43699 19.25864 484 ft 14 kts 42°
2026-05-04 17:20 47.43864 19.26084 487 ft 18 kts 42°
2026-05-04 17:20 47.43963 19.26219 486 ft 20 kts 41°
2026-05-04 17:21 47.44068 19.26483 489 ft 3 kts 93°
2026-05-04 17:21 47.44008 19.26620 491 ft 13 kts 133°
2026-05-04 17:22 47.43848 19.26877 484 ft 67 kts 133°
2026-05-04 17:22 47.43393 19.27611 490 ft 124 kts 132°
2026-05-04 17:23 47.41407 19.31007 1725 ft 153 kts 126°
2026-05-04 17:23 47.40886 19.32390 2174 ft 163 kts 124°
2026-05-04 17:23 47.39690 19.35646 2953 ft 199 kts 120°
2026-05-04 17:24 47.39041 19.37594 3428 ft 222 kts 119°
2026-05-04 17:24 47.35486 19.41649 6063 ft 238 kts 188°
2026-05-04 17:25 47.33942 19.40778 6979 ft 242 kts 214°
2026-05-04 17:25 47.31862 19.36717 8607 ft 266 kts 241°
2026-05-04 17:26 47.30763 19.33474 9637 ft 280 kts 243°
2026-05-04 17:26 47.28012 19.25093 11355 ft 335 kts 255°
2026-05-04 17:27 47.28532 19.18269 13065 ft 348 kts 288°
2026-05-04 17:27 47.30419 19.11602 14740 ft 357 kts 292°
2026-05-04 17:28 47.32378 19.04793 16346 ft 364 kts 291°
2026-05-04 17:29 47.35265 18.94279 18639 ft 375 kts 291°